TimeCDT,TemperatureF,Dew PointF,Humidity,Sea Level PressureIn,VisibilityMPH,Wind Direction,Wind SpeedMPH,Gust SpeedMPH,PrecipitationIn,Events,Conditions,WindDirDegrees,DateUTC
12:53 AM,68.0,63.0,84,29.87,10.0,West,8.1,-,N/A,,Scattered Clouds,260,2013-08-02 05:53:00
1:53 AM,66.0,62.1,87,29.88,10.0,West,9.2,-,N/A,,Scattered Clouds,280,2013-08-02 06:53:00
2:53 AM,64.9,62.1,90,29.88,10.0,WNW,6.9,-,N/A,,Clear,300,2013-08-02 07:53:00
3:53 AM,63.0,60.1,90,29.88,10.0,WNW,4.6,-,N/A,,Clear,300,2013-08-02 08:53:00
4:53 AM,63.0,59.0,87,29.89,10.0,WNW,3.5,-,N/A,,Partly Cloudy,300,2013-08-02 09:53:00
5:53 AM,63.0,59.0,87,29.91,10.0,WNW,4.6,-,N/A,,Mostly Cloudy,290,2013-08-02 10:53:00
6:53 AM,64.0,59.0,84,29.91,10.0,NNW,8.1,-,N/A,,Mostly Cloudy,340,2013-08-02 11:53:00
7:53 AM,66.0,59.0,78,29.91,10.0,NNW,8.1,-,N/A,,Clear,340,2013-08-02 12:53:00
8:53 AM,69.1,59.0,70,29.91,10.0,North,8.1,-,N/A,,Clear,350,2013-08-02 13:53:00
9:53 AM,73.0,57.9,59,29.91,10.0,NNE,8.1,-,N/A,,Clear,20,2013-08-02 14:53:00
10:53 AM,75.0,59.0,57,29.92,10.0,NNE,6.9,-,N/A,,Clear,30,2013-08-02 15:53:00
11:53 AM,75.9,57.0,52,29.93,10.0,NNE,6.9,-,N/A,,Clear,30,2013-08-02 16:53:00
12:53 PM,75.9,55.9,50,29.94,10.0,NNE,4.6,-,N/A,,Clear,20,2013-08-02 17:53:00
1:53 PM,75.0,55.0,50,29.96,10.0,NW,9.2,-,N/A,,Mostly Cloudy,310,2013-08-02 18:53:00
2:53 PM,73.9,55.9,53,29.96,10.0,WNW,4.6,-,0.00,,Mostly Cloudy,290,2013-08-02 19:53:00
3:53 PM,73.9,57.0,55,29.96,10.0,WNW,6.9,-,N/A,,Mostly Cloudy,290,2013-08-02 20:53:00
4:53 PM,73.0,57.9,59,29.96,10.0,WNW,8.1,-,0.00,,Overcast,290,2013-08-02 21:53:00
5:53 PM,71.1,57.9,63,29.97,10.0,WNW,6.9,-,N/A,,Overcast,290,2013-08-02 22:53:00
6:53 PM,70.0,60.1,71,29.95,10.0,NNW,6.9,-,0.00,,Overcast,330,2013-08-02 23:53:00
7:53 PM,69.1,57.0,65,29.99,10.0,NW,8.1,-,N/A,,Mostly Cloudy,320,2013-08-03 00:53:00
8:53 PM,64.9,55.9,73,29.99,10.0,NNW,4.6,-,N/A,,Partly Cloudy,330,2013-08-03 01:53:00
9:53 PM,61.0,55.0,81,30.02,10.0,NW,4.6,-,N/A,,Partly Cloudy,320,2013-08-03 02:53:00
10:53 PM,60.1,54.0,80,30.04,10.0,NNW,8.1,-,N/A,,Clear,330,2013-08-03 03:53:00
11:53 PM,57.9,54.0,87,30.04,10.0,NNW,5.8,-,N/A,,Clear,340,2013-08-03 04:53:00